FREGAT R/B (49811 NORAD) Tracking and Keplerian Element Data

This shows tracking and keplerian element data for the satellite.

Feedback or suggestion? Click here.




ElementValue
Catalog49811
NameFREGAT R/B
Epoch Orbit40
Epoch Day362.62218398
Epoch Year2021
RAAN25.7278
Inclination57.0774
Eccentricity0.0009225
Argument of Perigee221.7368
Mean Anonmoly138.2514
Mean Motion1.6773387
Decay Rate-5.7E-07
L11 49811U 21116C 21362.62218398 -.00000057 00000+0 00000+0 0 9998
L22 49811 57.0774 25.7278 0009225 221.7368 138.2514 1.67733870 403



Live tracking and technical data element details for FREGAT R/B (NORAD 49811). FREGAT R/B can be tracked NOW for your location showing map with azimuth and elevation plus other details from your city location.







IsCatalogInMostPopularTable: catalog: 49811, numindb: 38
Update: records affected: 1



GetName: 49811 FREGAT R/B

Hit Count: updated at: Sun, 04 Jun 2023 23:26:12 GMT